Погода Остров Голомянный

Погода Остров Голомянный : погода сейчас, прогноз погоды и архив. Всё, что Вы хотите узнать о погоде Остров Голомянный!

Хотите узнать прогноз погоды Остров Голомянный? Тогда Вам сюда: Погода Остров Голомянный

Поиск расширенной информации на нашем сайте:

Другие новости

Новости СМИ2

Главная страница сайта

Новости сайта

03.07.2017

Напоминаем, что на нашем специализированном сайте Метеоцентр.Азия вы можете получить высокодетализированные автоматические прогнозы погоды по пунктам России, СНГ и мира в авиационном формате (включающие направление и скорость ветра, видимость, явления погоды, количество и форму облачности, нижнюю и верхнюю границу облачности).


Погода Остров Голомянный - сегодня

Время (UTC), дата Ветер
(°,м/с) 
Видим.   Явления Облачность Т
(°С)
Тd
(°С)
f(%) Тe
(°С)
Pmin
(гПа)
dP
(гПа)
Po
(мм)
O2
(г/м3)
Тmin Tmax R s Состояние
почвы
21 04.11.18 090 (В) 20000 м    ясно 
-16 -19.1 77 -22  1012.6  0.9  759  326           
03 05.11.18 070 (В) 20000 м    3/0 средняя, верхняя 
[Ac trans|Ci fib]
-16.1 -19.3 76 -22  1013  0.1  759  327           
06 05.11.18 060 (СВ) 20000 м    3/0 средняя, верхняя 
[Ac trans|Ci fib]
-16.8 -19.1 82 -21  1013.1  759  327           
09 05.11.18 060 (СВ) 20000 м    3/0 верхняя 
[Ci fib]
-17 -18.9 85 -21  1013.3  0.3  759  328           
15 05.11.18 070 (В) 20000 м    3/0 верхняя 
[Ci fib]
-17.8 -20.4 80 -23  1012.9  -0.3  759  329           
18 05.11.18 070 (В) 20000 м    ясно 
-17.5 -20.1 80 -23  1012.7  -0.2  759  328           
21 05.11.18 070 (В) 20000 м    10/0 средняя 
[Ac und]
-15.3 -17.5 83 -20  1012.7  759  325           
03 06.11.18 070 (В) 20000 м    10/0 средняя 
[Ac und]
-14.9 -17.6 80 -21  1013.1  0.4  759  325           
06 06.11.18 080 (В) 20000 м  позёмок  6/0 средняя 
[Ac trans]
-15.9 -18.7 79 -22  1013.6  0.5  759  326           
09 06.11.18 070 (В) 20000 м    3/0 средняя 
[Ac trans]
-15.5 -18 81 -21  1014.2  0.6  760  326           
15 06.11.18 070 (В) 20000 м    5/0 средняя, верхняя 
[Ac trans|Ci fib]
-14.6 -16.7 84 -21  1015  0.5  760  325           
06 07.11.18 070 (В) 20000 м  позёмок  4/0 средняя, верхняя 
[Ac trans|Ci fib]
-15.3 -17.7 82 -22  1018.1  1.2  763  327           
09 07.11.18 060 (СВ) 20000 м    3/0 средняя 
[Ac trans]
-15.4 -18.2 79 -21  1019.7  1.6  764  328           
09 08.11.18 030 (СВ) 20000 м  позёмок  10/0 средняя, верхняя 
[Ac trans|Ci fib]
-12.1 -17.5 64 -18  1023.4  -0.4  767  325           
15 09.11.18 060 (СВ) 20000 м  {снег}  8/0 средняя, верхняя 
[Ac trans|Ci fib]
-14.8 -16.8 85 -20  1020.1  -0.3  764  327           
18 09.11.18 110 (В) 20000 м  {снег}  ясно 
-17.4 -20.3 78 -22  1019.1  -0.3  764  330           
21 09.11.18 190 (Ю) 4000 м  слаб. снег  10/3 100 м средняя 
[Frnb|As op]
-12.7 -14.4 87 -16  1017.1  -2  762  323           
03 11.11.18 120 (ЮВ) 20000 м    ясно 
-17.1 -22.1 65 -20  1011  0.9  757  327  -18.8         
06 12.11.18 050 (СВ) 20000 м  позёмок  5/0 средняя, верхняя 
[Ac trans|Ci fib]
-16.1 -19.2 77 -23  1003.8  0.1  752  324           
09 12.11.18 070 (В) 20000 м  позёмок  5/0 средняя 
[Ac trans]
-17.5 -20.4 78 -24  1004.2  0.4  752  325           
15 12.11.18 080 (В) 20000 м    10/10 870 м 
[Sc]
-19.4 -22.5 76 -24  1003.1  -0.9  752  328           
18 12.11.18 090 (В) 20000 м    10/10 900 м 
[St]
-19.1 -21.3 83 -23  1002  -1.1  751  327           
21 12.11.18 170 (Ю) 20000 м    10/10 900 м 
[Sc]
-15.2 -20.1 66 -21  1000.4  -1.1  750  321           
12 13.11.18 090 (В) 11-14{15}  2000 м  слаб. снег  10/6 120 м средняя 
[Frnb|As op]
-17.1 -19.3 83 -26  992.4  -1.6  743  321    -16.8  0.4     
00 14.11.18 070 (В) 13-17{19}  1000 м  снег  10/6 100 м средняя 
[Frnb|As op]
-18.3 -20.8 81 -29  991.4  0.4  743  322  -18.4    19  неравномерный
сухой снег
100% 
Время (UTC), дата Ветер
(°,м/с) 
Видим.   Явления Облачность Т
(°С)
Тd
(°С)
f(%) Тe
(°С)
Pmin
(гПа)
dP
(гПа)
Po
(мм)
O2
(г/м3)
Тmin Tmax R s Состояние
почвы

Для получения пояснительной информации подведите курсор к названию столбца.

ПОГОДА Остров Голомянный - архив

Всё, что Вы хотите узнать о погоде Остров Голомянный - удобно и подробно!

Выберите нужную дату (начиная с 1 января 2015* года) и нажмите кнопку "Найти".
Будут отображены архивные сводки погоды по пункту Остров Голомянный, начиная с указанной даты.


Отображать данные в формате CSV (для использования в таблицах Excel)


Внимание! Наш архив погоды предназначен исключительно для личного некоммерческого использования в познавательных целях. Если Вам необходимы официальные справки о состоянии погоды (для производственных, юридических, коммерческих и т.п. целей), обращайтесь в органы Росгидромета.

*Примечание: данная дата относится к архиву по метеостанциям СССР (Россия, СНГ, Балтия).
Архив по метеостанциям Зарубежной Европы и Азии (кроме Китая) хранится 10 дней, по другим регионам земного шара (Китай, Африка, Америка, Австралия, Океания) - 1 день.

Остров Голомянный - район местоположения метеостанции


Название, широта, долгота, высота метеостанции:
Остров Голомянный 79.6°ш. 90.6°д. 8 м над ур. моря [Российская Федерация]

Дополнительная информация

В oтличие oт бoльшинства пoгoдных сайтoв мы публикуем пoдрoбную метеoинфoрмацию в детальнoм прoфессиoнальнoм фoрмате.

Характеристики температуры и влажнoсти вoздуха измеряются на высoте 2 м в тени вдали oт зданий и деревьев.
Скoрoсть ветра измеряется на высoте 10 м (на урoвне рoста челoвека скoрoсть ветра ниже в 1.5-2 раза). Если метеoстанция нахoдится в гoрoде или в лесу, тo скoрoсть ветра занижена на 2-4 м/с пo сравнению с oткрытым местoм. Скoрoсть ветра над акватoриями крупных рек и oзёр, а также на вершинах хoлмoв на 2-5 м/с выше, чем в oбычных услoвиях.
Атмoсфернoе давление в разных тoчках местнoсти мoжет значительнo oтличаться oт давления на метеoстанции, в зависимoсти oт услoвий рельефа (при пoдъёме на 10 м давление пoнижается примернo на 1 мм рт.ст.).